CW1172 Weather Reports


time (UTC)temp
C
wind
direction
speed
KPH
gust
KPH
rain 1hr
cm
rain 24hr
cm
rain mn
cm
humidity
%
barometer
mb
20260831120015 18 203 0.0 0.0 0.00 0.00 0.00 75 1005.4
20260831114508 19 198 0.0 0.0 0.00 0.00 0.00 73 1005.4
20260831113006 19 205 0.0 0.0 0.00 0.00 0.00 74 1005.3
20260831111506 18 239 0.0 0.0 0.00 0.00 0.00 74 1005.3
20260831110005 18 161 0.0 0.0 0.00 0.00 0.00 77 1005.4
20260831104509 17 194 0.0 0.0 0.00 0.00 0.00 78 1005.4
20260831103004 18 225 0.0 0.0 0.00 0.00 0.00 75 1005.5
20260831101503 18 284 0.0 0.0 0.00 0.00 0.00 78 1005.4
20260831100109 17 360 0.0 0.0 0.00 0.00 0.00 79 1005.4
20260831094557 17 230 0.0 0.0 0.00 0.00 0.00 79 1005.3
20260831093058 17 207 0.0 0.0 0.00 0.00 0.00 78 1005.2
20260831091554 16 214 0.0 0.0 0.00 0.00 0.00 81 1005.1
20260831084559 16 360 0.0 0.0 0.00 0.00 0.00 81 1005.2
20260831083052 16 211 0.0 0.0 0.00 0.00 0.00 81 1005.2
20260831081551 16 225 0.0 0.0 0.00 0.00 0.00 82 1005.1
20260831080052 16 360 0.0 0.0 0.00 0.00 0.00 83 1005.1
20260831074552 15 260 0.0 0.0 0.00 0.00 0.00 83 1005.1
20260831073050 15 234 0.0 0.0 0.00 0.00 0.00 84 1005.0
20260831071549 15 188 0.0 0.0 0.00 0.00 0.00 85 1004.9
20260831070055 15 198 0.0 0.0 0.00 0.00 0.00 85 1004.9
20260831064547 15 203 0.0 0.0 0.00 0.00 0.00 85 1005.0
20260831063050 15 257 0.0 0.0 0.00 0.00 0.00 85 1004.9
20260831061544 15 198 0.0 0.0 0.00 0.00 0.00 85 1004.7
20260831060042 15 257 0.0 0.0 0.00 0.00 0.00 85 1004.7
20260831054544 15 229 0.0 0.0 0.00 0.00 0.00 86 1004.6
20260831053051 15 190 0.0 0.0 0.00 0.00 0.00 87 1004.5
20260831051543 15 225 0.0 0.0 0.00 0.00 0.00 87 1004.4
20260831050044 15 360 0.0 0.0 0.00 0.00 0.00 88 1004.4
20260831044539 15 184 0.0 0.0 0.00 0.00 0.00 88 1004.4
20260831043041 15 202 0.0 0.0 0.00 0.00 0.00 88 1004.4
20260831041539 15 236 0.0 0.0 0.00 0.00 0.00 87 1004.3
20260831040038 15 206 0.0 0.0 0.00 0.00 0.00 87 1004.3
20260831034541 15 234 0.0 0.0 0.00 0.00 0.00 87 1004.3
20260831033057 15 223 0.0 0.0 0.00 0.00 0.00 87 1004.3
20260831031536 15 360 0.0 0.0 0.00 0.00 0.00 87 1004.2
20260831030036 15 192 0.0 0.0 0.00 0.00 0.00 88 1004.2
20260831024538 15 194 0.0 0.0 0.00 0.00 0.00 88 1004.0
20260831023035 15 256 0.0 0.0 0.00 0.00 0.00 88 1004.1
20260831021535 15 223 0.0 0.0 0.00 0.00 0.00 87 1004.1
20260831020040 15 230 0.0 0.0 0.00 0.00 0.00 87 1004.1
20260831014535 15 227 0.0 0.0 0.00 0.00 0.00 87 1004.2
20260831013034 15 219 0.0 0.0 0.00 0.00 0.00 89 1004.0
20260831011542 15 360 0.0 0.0 0.00 0.00 0.00 89 1004.1
20260831010033 15 248 0.0 0.0 0.00 0.00 0.00 89 1004.0
20260831004534 15 248 0.0 0.0 0.00 0.00 0.00 89 1004.1
20260831003036 15 237 0.0 0.0 0.00 0.00 0.00 90 1004.3
20260831001532 15 229 0.0 0.0 0.00 0.00 0.00 90 1004.2
20260831000037 15 223 0.0 0.0 0.00 0.00 0.00 90 1004.1
20260830234537 15 200 0.0 0.0 0.00 0.00 0.00 90 1004.1
20260830233030 15 169 0.0 0.0 0.00 0.00 0.00 90 1004.1
20260830231529 15 208 0.0 0.0 0.00 0.00 0.00 91 1003.9
20260830230033 15 236 0.0 0.0 0.00 0.00 0.00 91 1003.9
20260830224531 15 360 0.0 0.0 0.00 0.00 0.00 91 1003.8
20260830223029 15 226 0.0 0.0 0.00 0.00 0.00 92 1003.8
20260830221537 15 215 0.0 0.0 0.00 0.00 0.00 92 1003.8
20260830220027 15 213 0.0 0.0 0.00 0.00 0.00 92 1003.8
20260830214526 15 186 0.0 0.0 0.00 0.00 0.43 92 1003.8
20260830213032 15 360 0.0 0.0 0.00 0.00 0.43 92 1003.8
20260830211525 15 247 0.0 0.0 0.00 0.00 0.43 92 1003.8
20260830210024 15 157 0.0 0.0 0.00 0.00 0.43 92 1003.7
20260830204525 15 202 0.0 0.0 0.00 0.00 0.43 92 1003.7
20260830203023 15 195 0.0 0.0 0.00 0.00 0.43 93 1003.6
20260830201521 15 209 0.0 0.0 0.00 0.00 0.43 93 1003.5
20260830200021 15 260 0.0 0.0 0.00 0.00 0.43 93 1003.4
20260830194520 15 242 0.0 0.0 0.00 0.00 0.43 93 1003.2
20260830193019 15 222 0.0 0.0 0.00 0.00 0.43 93 1003.1
20260830191519 15 232 0.0 0.0 0.00 0.00 0.43 93 1002.9
20260830190023 15 360 0.0 0.0 0.00 0.00 0.43 93 1002.9
20260830184519 15 241 0.0 0.0 0.00 0.00 0.43 93 1002.8
20260830183019 15 188 0.0 0.0 0.00 0.00 0.43 93 1002.6
20260830181519 15 209 0.0 0.0 0.00 0.00 0.43 93 1002.5
20260830180020 15 238 0.0 0.0 0.00 0.00 0.43 93 1002.4
20260830174519 16 234 0.0 0.0 0.00 0.00 0.43 93 1002.2
20260830173019 16 248 0.0 0.0 0.00 0.00 0.43 92 1002.0
20260830171519 16 242 0.0 0.0 0.00 0.00 0.41 92 1002.0
20260830170034 16 190 0.0 0.0 0.00 0.00 0.38 92 1001.9
20260830164515 16 190 0.0 0.0 0.00 0.00 0.36 92 1001.7
20260830163014 16 190 0.0 0.0 0.00 0.00 0.30 92 1001.5
20260830161513 16 180 0.0 0.0 0.00 0.00 0.25 92 1001.5
20260830160024 16 179 0.0 0.0 0.00 0.00 0.25 92 1001.3
20260830154516 16 178 0.0 0.0 0.00 0.00 0.23 92 1001.2
20260830153015 16 178 0.0 0.0 0.00 0.00 0.15 92 1001.3
20260830151515 16 178 0.0 0.0 0.00 0.00 0.15 92 1001.3
20260830150018 16 179 0.0 0.0 0.00 0.00 0.13 92 1001.2
20260830144514 16 180 0.0 0.0 0.00 0.00 0.13 92 1001.2
20260830143013 16 180 0.0 0.0 0.00 0.00 0.13 92 1001.3
20260830141512 16 179 0.0 0.0 0.00 0.00 0.10 91 1001.2
20260830140020 16 178 0.0 0.0 0.00 0.00 0.10 91 1001.2
20260830134512 17 179 0.0 0.0 0.00 0.00 0.08 91 1001.3
20260830133023 17 179 0.0 0.0 0.00 0.00 0.08 91 1001.2
20260830131511 17 179 0.0 0.0 0.00 0.00 0.08 91 1001.2
20260830130013 17 179 0.0 0.0 0.00 0.00 0.05 91 1001.2
20260830124518 17 180 0.0 0.0 0.00 0.00 0.05 91 1001.2
20260830123011 17 179 0.0 0.0 0.00 0.00 0.05 91 1001.2
20260830121509 17 179 0.0 0.0 0.00 0.00 0.05 91 1001.3